Location: Unspecified
(0.0000°N, 0.0000°E)
Time: 13:33:55
(UTC+01:00)

Iridium 47 - Visible Passes

Search period start: 06 March 2015 00:00
Search period end: 16 March 2015 00:00
Orbit: 776 x 779 km, 86.4° (Epoch: 05 March)

Date Brightness Start Highest point End Pass type
(mag) Time Alt. Az. Time Alt. Az. Time Alt. Az.
06 Mar 5.3 06:07:11 10° S 06:12:22 71° E 06:17:33 10° N visible
07 Mar 6.9 05:34:20 10° SSE 05:38:52 31° E 05:43:28 10° NNE visible
08 Mar 8.0 05:02:49 10° ESE 05:05:16 14° E 05:08:06 10° ENE visible
08 Mar 5.7 06:41:18 10° SSW 06:45:56 32° W 06:50:28 10° NNW visible
09 Mar 4.9 06:07:14 10° S 06:12:26 72° W 06:17:37 10° N visible
10 Mar 5.9 05:33:55 10° SSE 05:38:57 51° E 05:44:00 10° NNE visible
11 Mar 7.3 05:01:27 10° SE 05:05:25 23° E 05:09:32 10° NE visible
11 Mar 6.2 06:42:13 10° SW 06:46:02 20° W 06:49:37 10° NW visible
12 Mar 5.3 06:07:32 10° SSW 06:12:30 43° W 06:17:23 10° NNW visible
13 Mar 5.0 05:33:47 10° S 05:39:00 83° E 05:44:13 10° N visible
14 Mar 6.4 05:00:46 10° SSE 05:05:30 37° E 05:10:18 10° NNE visible
14 Mar 6.7 06:44:07 10° WSW 06:46:11 12° W 06:47:49 10° WNW visible
15 Mar 7.6 04:28:50 10° SE 04:31:56 17° E 04:35:19 10° NE visible
15 Mar 5.9 06:08:10 10° SSW 06:12:34 27° W 06:16:51 10° NNW visible
